FW2979 Weather Reports


Display with metric or nautical units.
time (UTC)temp
F
wind
direction
speed
MPH
gust
MPH
rain 1hr
in
rain 24hr
in
rain mn
in
humidity
%
barometer
mb
20260510123438 46 309 10.0 21.0 0.00 0.00 0.00 68 812.6
20260510123328 46 302 17.0 22.0 0.00 0.00 0.00 75 812.5
20260510123222 46 294 13.0 16.0 0.00 0.00 0.00 72 812.5
20260510122958 45 312 12.0 16.0 0.00 0.00 0.00 72 812.5
20260510122738 45 282 10.0 18.0 0.00 0.00 0.00 68 812.5
20260510122629 44 289 9.0 16.0 0.00 0.00 0.00 65 812.6
20260510122518 44 286 15.0 23.0 0.00 0.00 0.00 68 812.5
20260510122410 44 291 16.0 21.0 0.00 0.00 0.00 63 812.3
20260510122148 44 290 16.0 21.0 0.00 0.00 0.00 68 812.2
20260510122038 44 284 16.0 22.0 0.00 0.00 0.00 68 812.2
20260510121928 44 287 19.0 26.0 0.00 0.00 0.00 65 812.3
20260510121821 43 286 17.0 23.0 0.00 0.00 0.00 70 812.3
20260510121708 43 291 14.0 21.0 0.00 0.00 0.00 70 812.3
20260510121558 43 279 17.0 24.0 0.00 0.00 0.00 88 812.3
20260510121118 42 306 12.0 15.0 0.00 0.00 0.00 78 812.5
20260510121008 43 306 15.0 18.0 0.00 0.00 0.00 87 812.2
20260510120858 43 294 15.0 19.0 0.00 0.00 0.00 91 812.2
20260510120748 43 296 15.0 17.0 0.00 0.00 0.00 91 812.2
20260510120418 42 283 17.0 25.0 0.00 0.00 0.00 94 812.2
20260510120158 42 281 21.0 25.0 0.00 0.00 0.00 98 812.1
20260510120048 42 285 21.0 30.0 0.00 0.00 0.00 97 812.1
20260510115938 42 277 18.0 26.0 0.00 0.00 0.00 98 812.2
20260510115718 42 274 15.0 21.0 0.00 0.00 0.00 99 812.2
20260510115608 42 284 17.0 21.0 0.00 0.00 0.00 10 812.2
20260510115348 42 279 16.0 23.0 0.00 0.00 0.00 10 812.5
20260510115238 41 289 12.0 18.0 0.00 0.00 0.00 10 812.6
20260510115128 41 281 13.0 18.0 0.00 0.00 0.00 10 812.5
20260510115018 40 294 14.0 21.0 0.00 0.00 0.00 10 812.5
20260510114908 40 294 17.0 23.0 0.00 0.00 0.00 10 812.3
20260510114758 41 295 16.0 19.0 0.00 0.00 0.00 10 812.3
20260510114648 40 301 16.0 20.0 0.00 0.00 0.00 10 812.2
20260510114538 40 302 17.0 21.0 0.00 0.00 0.00 10 812.5
20260510114428 40 297 19.0 22.0 0.00 0.00 0.00 10 812.3
20260510114318 40 303 17.0 22.0 0.00 0.00 0.00 10 812.5
20260510114208 40 306 16.0 20.0 0.00 0.00 0.00 10 812.5
20260510114058 40 281 13.0 19.0 0.00 0.00 0.00 10 812.5
20260510113948 40 302 14.0 21.0 0.00 0.00 0.00 10 812.5
20260510113838 40 300 15.0 18.0 0.00 0.00 0.00 10 812.5
20260510113728 40 293 9.0 11.0 0.00 0.00 0.00 10 812.6
20260510113358 40 332 8.0 13.0 0.00 0.00 0.00 10 812.6
20260510113248 40 324 6.0 9.0 0.00 0.00 0.00 10 812.6
20260510113138 40 306 11.0 15.0 0.00 0.00 0.00 10 812.6
20260510112918 40 298 10.0 12.0 0.00 0.00 0.00 10 812.6
20260510112808 40 292 9.0 11.0 0.00 0.00 0.00 10 812.6
20260510112438 41 268 10.0 17.0 0.00 0.00 0.00 10 812.6
20260510112328 41 261 9.0 14.0 0.00 0.00 0.00 10 812.6
20260510112218 41 303 6.0 9.0 0.00 0.00 0.00 10 812.7
20260510111958 41 274 10.0 19.0 0.00 0.00 0.00 10 812.6
20260510111738 40 315 11.0 19.0 0.00 0.00 0.00 10 812.6
20260510111518 40 295 9.0 18.0 0.00 0.00 0.00 10 812.6
20260510111148 39 314 10.0 18.0 0.00 0.00 0.00 10 812.5
20260510111038 39 315 13.0 19.0 0.00 0.00 0.00 10 812.5
20260510110928 40 301 17.0 23.0 0.00 0.00 0.00 10 812.5
20260510110818 40 292 14.0 25.0 0.00 0.00 0.00 10 812.6
20260510110708 40 287 9.0 15.0 0.00 0.00 0.00 10 812.6
20260510110558 40 309 15.0 23.0 0.00 0.00 0.00 10 812.5
20260510110448 40 290 13.0 19.0 0.00 0.00 0.00 10 812.6
20260510110338 40 297 16.0 20.0 0.00 0.00 0.00 10 812.5
20260510110228 41 283 12.0 19.0 0.00 0.00 0.00 10 812.6
20260510110118 40 281 13.0 22.0 0.00 0.00 0.00 10 812.6
20260510110008 40 283 14.0 19.0 0.00 0.00 0.00 10 812.6
20260510105858 40 288 14.0 19.0 0.00 0.00 0.00 10 812.6
20260510105748 40 276 13.0 20.0 0.00 0.00 0.00 10 812.6
20260510105638 41 279 14.0 22.0 0.00 0.00 0.00 10 812.6
20260510105418 40 291 17.0 22.0 0.00 0.00 0.00 10 812.6
20260510105158 39 313 18.0 23.0 0.00 0.00 0.00 10 812.6
20260510104938 40 303 15.0 24.0 0.00 0.00 0.00 10 812.6
20260510104828 40 318 17.0 26.0 0.00 0.00 0.00 10 812.6
20260510104718 40 305 15.0 23.0 0.00 0.00 0.00 10 812.6
20260510104608 40 311 15.0 24.0 0.00 0.00 0.00 10 812.6
20260510104458 40 306 14.0 23.0 0.00 0.00 0.00 10 812.5
20260510104348 40 298 15.0 20.0 0.00 0.00 0.00 10 812.6
20260510104128 40 308 16.0 22.0 0.00 0.00 0.00 10 812.6
20260510103908 40 294 17.0 24.0 0.00 0.00 0.00 10 812.6
20260510103804 40 298 15.0 24.0 0.00 0.00 0.00 10 812.6
20260510103650 40 307 19.0 28.0 0.00 0.00 0.00 10 812.5
20260510103538 40 301 19.0 33.0 0.00 0.00 0.00 10 812.5
20260510103428 40 309 16.0 24.0 0.00 0.00 0.00 10 812.5
20260510103318 40 310 16.0 23.0 0.00 0.00 0.00 10 812.6
20260510103058 40 314 18.0 25.0 0.00 0.00 0.00 10 812.6
20260510102838 40 312 16.0 29.0 0.00 0.00 0.00 10 812.6
20260510102728 40 303 10.0 15.0 0.00 0.00 0.00 10 812.6
20260510102620 40 318 18.0 27.0 0.00 0.00 0.00 10 812.6
20260510102515 41 307 17.0 28.0 0.00 0.00 0.00 10 812.6
20260510102359 40 310 10.0 16.0 0.00 0.00 0.00 10 812.6
20260510102248 40 317 12.0 21.0 0.00 0.00 0.00 10 812.6
20260510102138 40 319 16.0 26.0 0.00 0.00 0.00 10 812.6
20260510102028 40 316 17.0 27.0 0.00 0.00 0.00 10 812.5
20260510101918 40 313 16.0 23.0 0.00 0.00 0.00 10 812.5
20260510101808 40 318 19.0 28.0 0.00 0.00 0.00 10 812.5
20260510101548 40 314 17.0 24.0 0.00 0.00 0.00 10 812.6
20260510101438 40 302 10.0 22.0 0.00 0.00 0.00 10 812.6
20260510101328 40 302 14.0 29.0 0.00 0.00 0.00 10 812.6
20260510101218 40 315 18.0 25.0 0.00 0.00 0.00 10 812.6
20260510101108 40 272 8.0 13.0 0.00 0.00 0.00 10 812.6
20260510100958 40 301 12.0 20.0 0.00 0.00 0.00 10 812.6
20260510100848 40 318 8.0 16.0 0.00 0.00 0.00 10 812.5
20260510100628 40 314 13.0 18.0 0.00 0.00 0.00 10 812.5
20260510100518 40 315 15.0 24.0 0.00 0.00 0.00 10 812.5
20260510100038 40 308 9.0 17.0 0.00 0.00 0.00 10 812.6
20260510095928 40 319 16.0 25.0 0.00 0.00 0.00 10 812.6
20260510095818 39 314 16.0 27.0 0.00 0.00 0.00 10 812.6
20260510095708 39 307 12.0 17.0 0.00 0.00 0.00 10 812.6
20260510095558 40 316 19.0 32.0 0.00 0.00 0.00 10 812.5
20260510095448 39 311 17.0 24.0 0.00 0.00 0.00 10 812.3
20260510095338 39 316 17.0 28.0 0.00 0.00 0.00 10 812.2
20260510095228 39 315 17.0 30.0 0.00 0.00 0.00 10 812.2
20260510095118 39 319 17.0 30.0 0.00 0.00 0.00 10 812.5
20260510095008 40 322 18.0 30.0 0.00 0.00 0.00 10 812.5
20260510094748 40 319 13.0 26.0 0.00 0.00 0.00 10 812.6
20260510094638 40 320 12.0 27.0 0.00 0.00 0.00 10 812.6
20260510094528 39 349 14.0 25.0 0.00 0.00 0.00 10 812.2
20260510094418 40 351 17.0 27.0 0.00 0.00 0.00 10 812.3
20260510094308 40 346 12.0 23.0 0.00 0.00 0.00 10 812.2
20260510094158 40 349 7.0 12.0 0.00 0.00 0.00 10 812.6
20260510094048 40 0 13.0 17.0 0.00 0.00 0.00 10 812.3
20260510093938 40 3 16.0 25.0 0.00 0.00 0.00 10 812.3
20260510093828 40 354 14.0 21.0 0.00 0.00 0.00 10 812.5
20260510093718 40 345 8.0 17.0 0.00 0.00 0.00 10 812.6
20260510093608 40 350 16.0 23.0 0.00 0.00 0.00 10 812.3
20260510093348 40 352 11.0 21.0 0.00 0.00 0.00 10 812.6
20260510093128 40 354 17.0 25.0 0.00 0.00 0.00 10 812.5
20260510093018 40 343 13.0 18.0 0.00 0.00 0.00 10 812.3
20260510092908 40 330 13.0 22.0 0.00 0.00 0.00 10 812.3
20260510092758 40 331 11.0 21.0 0.00 0.00 0.00 10 812.5
20260510092648 40 318 9.0 23.0 0.00 0.00 0.00 10 812.5
20260510092318 40 350 12.0 24.0 0.00 0.00 0.00 10 812.5
20260510092058 39 1 13.0 19.0 0.00 0.00 0.00 10 812.3
20260510091948 39 349 15.0 19.0 0.00 0.00 0.00 10 812.5
20260510091838 39 326 10.0 16.0 0.00 0.00 0.00 10 812.6
20260510091728 40 332 11.0 19.0 0.00 0.00 0.00 10 812.5
20260510091618 40 341 10.0 21.0 0.00 0.00 0.00 10 812.2
20260510091508 40 322 9.0 17.0 0.00 0.00 0.00 10 812.6
20260510091248 39 350 13.0 20.0 0.00 0.00 0.00 10 812.3
20260510091138 40 326 14.0 23.0 0.00 0.00 0.00 10 812.3
20260510090918 40 355 14.0 21.0 0.00 0.00 0.00 10 812.2
20260510090808 40 357 17.0 24.0 0.00 0.00 0.00 10 812.2
20260510090658 40 347 15.0 24.0 0.00 0.00 0.00 10 812.2
20260510090548 39 341 14.0 25.0 0.00 0.00 0.00 10 812.5
20260510090438 40 346 16.0 23.0 0.00 0.00 0.00 10 812.5
20260510090328 40 342 12.0 30.0 0.00 0.00 0.00 10 812.3
20260510090218 40 355 16.0 22.0 0.00 0.00 0.00 10 812.3
20260510090108 40 353 15.0 23.0 0.00 0.00 0.00 10 812.5
20260510085848 39 348 17.0 27.0 0.00 0.00 0.00 10 812.2
20260510085738 39 350 22.0 32.0 0.00 0.00 0.00 10 812.2
20260510085408 39 356 19.0 25.0 0.00 0.00 0.00 10 812.2
20260510085258 39 357 13.0 20.0 0.00 0.00 0.00 10 812.5
20260510085148 39 345 14.0 25.0 0.00 0.00 0.00 10 812.5
20260510085038 39 350 17.0 28.0 0.00 0.00 0.00 10 812.2
20260510084928 39 341 17.0 26.0 0.00 0.00 0.00 10 812.2
20260510084818 39 345 15.0 27.0 0.00 0.00 0.00 10 812.3
20260510084558 39 350 17.0 27.0 0.00 0.00 0.00 10 812.2
20260510084448 39 356 19.0 29.0 0.00 0.00 0.00 10 812.2
20260510084338 39 340 19.0 27.0 0.00 0.00 0.00 10 812.1
20260510084118 39 353 16.0 22.0 0.00 0.00 0.00 10 812.2
20260510083858 39 346 16.0 27.0 0.00 0.00 0.00 10 812.2
20260510083748 39 331 13.0 24.0 0.00 0.00 0.00 10 812.2
20260510083638 39 348 16.0 30.0 0.00 0.00 0.00 10 812.1
20260510083528 39 324 15.0 25.0 0.00 0.00 0.00 10 812.2
20260510083418 39 312 21.0 32.0 0.00 0.00 0.00 10 812.2
20260510083308 39 321 21.0 36.0 0.00 0.00 0.00 10 812.1
20260510083158 39 317 14.0 29.0 0.00 0.00 0.00 10 812.2
20260510083048 39 345 16.0 25.0 0.00 0.00 0.00 10 812.1
20260510082828 39 0 17.0 25.0 0.00 0.00 0.00 10 812.1
20260510082718 39 339 12.0 21.0 0.00 0.00 0.00 10 812.2
20260510082608 39 356 18.0 26.0 0.00 0.00 0.00 10 812.1
20260510082458 39 342 17.0 24.0 0.00 0.00 0.00 10 812.1
20260510082348 39 336 10.0 17.0 0.00 0.00 0.00 10 812.2
20260510082237 39 347 18.0 27.0 0.00 0.00 0.00 10 811.9
20260510082128 39 337 12.0 21.0 0.00 0.00 0.00 10 812.1
20260510082018 39 354 15.0 23.0 0.00 0.00 0.00 10 811.9
20260510081908 39 353 22.0 28.0 0.00 0.00 0.00 10 811.8
20260510081648 39 340 19.0 28.0 0.00 0.00 0.00 10 811.9
20260510081538 39 356 20.0 25.0 0.00 0.00 0.00 10 811.8
20260510081317 39 2 14.0 25.0 0.00 0.00 0.00 10 812.1
20260510081208 39 6 18.0 25.0 0.00 0.00 0.00 10 811.8
20260510081058 39 0 22.0 31.0 0.00 0.00 0.00 10 811.7
20260510080948 39 355 23.0 31.0 0.00 0.00 0.00 10 811.5
20260510080838 39 353 25.0 31.0 0.00 0.00 0.00 10 811.7
20260510080727 39 352 22.0 33.0 0.00 0.00 0.00 10 811.8
20260510080618 39 0 24.0 32.0 0.00 0.00 0.00 10 811.7
20260510080508 39 348 23.0 31.0 0.00 0.00 0.00 10 811.8
20260510080358 39 352 23.0 30.0 0.00 0.00 0.00 10 811.8
20260510080248 39 353 19.0 29.0 0.00 0.00 0.00 10 811.5
20260510080138 38 346 17.0 30.0 0.00 0.00 0.00 10 811.8
20260510080028 38 344 21.0 30.0 0.00 0.00 0.00 10 811.8
20260510075918 39 330 23.0 39.0 0.00 0.00 0.00 10 811.8
20260510075438 39 343 15.0 23.0 0.00 0.00 0.00 10 812.1
20260510075218 39 337 19.0 37.0 0.00 0.00 0.00 10 811.8
20260510075108 39 334 15.0 32.0 0.00 0.00 0.00 10 812.1
20260510074958 39 346 22.0 32.0 0.00 0.00 0.00 10 811.5
20260510074848 39 347 16.0 28.0 0.00 0.00 0.00 10 811.8
20260510074738 39 350 22.0 29.0 0.00 0.00 0.00 10 811.7
20260510074628 39 350 17.0 30.0 0.00 0.00 0.00 10 811.5
20260510074518 39 354 26.0 35.0 0.00 0.00 0.00 10 811.4
20260510074258 39 0 21.0 31.0 0.00 0.00 0.00 10 811.8
20260510074037 39 0 17.0 29.0 0.00 0.00 0.00 10 811.8
20260510073928 39 356 23.0 32.0 0.00 0.00 0.00 10 811.4
20260510073818 39 0 25.0 32.0 0.00 0.00 0.00 10 811.3
20260510073708 39 346 20.0 31.0 0.00 0.00 0.00 10 811.5
20260510073558 39 358 21.0 29.0 0.00 0.00 0.00 10 811.7
20260510073448 39 4 25.0 33.0 0.00 0.00 0.00 10 811.4
20260510073117 39 0 24.0 31.0 0.00 0.00 0.00 10 811.3
20260510073007 39 2 22.0 32.0 0.00 0.00 0.00 10 811.5
20260510072858 39 1 23.0 30.0 0.00 0.00 0.00 10 811.3
20260510072748 39 358 19.0 25.0 0.00 0.00 0.00 10 811.7
20260510072638 39 356 19.0 24.0 0.00 0.00 0.00 10 811.5
20260510072528 39 4 23.0 31.0 0.00 0.00 0.00 10 811.4
20260510072418 39 6 20.0 25.0 0.00 0.00 0.00 10 811.4
20260510072307 39 3 20.0 26.0 0.00 0.00 0.00 10 811.4
20260510072157 39 343 13.0 19.0 0.00 0.00 0.00 10 811.8
20260510072047 39 2 21.0 28.0 0.00 0.00 0.00 10 811.5
20260510071938 39 4 20.0 26.0 0.00 0.00 0.00 10 811.4
20260510071828 39 355 22.0 31.0 0.00 0.00 0.00 10 811.4
20260510071718 39 3 17.0 26.0 0.00 0.00 0.00 10 811.5
20260510071607 39 5 23.0 31.0 0.00 0.00 0.00 10 811.3
20260510071457 39 9 22.0 28.0 0.00 0.00 0.00 10 811.3
20260510071018 39 0 25.0 35.0 0.00 0.00 0.00 10 811.3
20260510070908 39 355 22.0 31.0 0.00 0.00 0.00 10 811.3
20260510070757 39 0 25.0 32.0 0.00 0.00 0.00 10 811.4
20260510070537 39 1 25.0 33.0 0.00 0.00 0.00 10 811.4
20260510070429 39 353 25.0 34.0 0.00 0.00 0.00 10 811.3
20260510070318 39 355 23.0 30.0 0.00 0.00 0.00 10 811.3
20260510070208 39 358 24.0 33.0 0.00 0.00 0.00 10 811.4
20260510070059 39 0 27.0 32.0 0.00 0.00 0.00 10 811.4
20260510065948 39 0 20.0 27.0 0.00 0.00 0.00 10 811.4
20260510065728 39 352 23.0 28.0 0.00 0.00 0.00 10 811.4
20260510065508 39 0 21.0 27.0 0.00 0.00 0.00 10 811.4
20260510065358 39 0 25.0 31.0 0.00 0.00 0.00 10 811.3
20260510065248 39 2 21.0 34.0 0.00 0.00 0.00 10 811.3
20260510065138 39 356 23.0 32.0 0.00 0.00 0.00 10 811.3
20260510065028 39 355 21.0 26.0 0.00 0.00 0.00 10 811.5
20260510064918 39 351 24.0 34.0 0.00 0.00 0.00 10 810.9
20260510064809 39 344 15.0 21.0 0.00 0.00 0.00 10 811.7
20260510064658 39 355 26.0 34.0 0.00 0.00 0.00 10 811.4
20260510064548 39 358 22.0 29.0 0.00 0.00 0.00 10 811.4
20260510064438 39 1 23.0 30.0 0.00 0.00 0.00 10 811.3
20260510064328 38 0 23.0 29.0 0.00 0.00 0.00 10 811.5
20260510064108 38 352 25.0 31.0 0.00 0.00 0.00 10 811.7
20260510063958 38 354 25.0 34.0 0.00 0.00 0.00 10 811.5
20260510063738 39 353 24.0 31.0 0.00 0.00 0.00 10 811.7
20260510063628 38 3 19.0 25.0 0.00 0.00 0.00 10 811.7
20260510063520 38 356 19.0 25.0 0.00 0.00 0.00 10 811.8
20260510063408 38 355 22.0 28.0 0.00 0.00 0.00 10 811.7
20260510063258 38 352 21.0 27.0 0.00 0.00 0.00 10 811.4
20260510063148 39 358 26.0 31.0 0.00 0.00 0.00 10 811.5
20260510063039 39 350 20.0 26.0 0.00 0.00 0.00 10 811.5
20260510062928 39 353 19.0 26.0 0.00 0.00 0.00 10 811.8
20260510062818 38 353 16.0 22.0 0.00 0.00 0.00 10 811.8
20260510062708 38 0 20.0 25.0 0.00 0.00 0.00 10 811.4
20260510062558 38 357 24.0 31.0 0.00 0.00 0.00 10 811.4
20260510062448 38 352 24.0 30.0 0.00 0.00 0.00 10 811.7
20260510062338 38 345 15.0 29.0 0.00 0.00 0.00 10 811.7
20260510062228 38 345 21.0 30.0 0.00 0.00 0.00 10 811.8
20260510062009 39 356 23.0 32.0 0.00 0.00 0.00 10 811.7
20260510061858 39 353 16.0 23.0 0.00 0.00 0.00 10 811.8
20260510061748 39 352 14.0 20.0 0.00 0.00 0.00 10 811.9
20260510061638 39 357 17.0 22.0 0.00 0.00 0.00 10 811.8
20260510061528 39 357 17.0 22.0 0.00 0.00 0.00 10 811.8
20260510061423 39 356 18.0 23.0 0.00 0.00 0.00 10 811.8
20260510061308 39 1 18.0 24.0 0.00 0.00 0.00 10 811.8
20260510060937 38 7 17.0 23.0 0.00 0.00 0.00 10 811.8
20260510060827 38 4 20.0 24.0 0.00 0.00 0.00 10 811.8
20260510060718 38 356 18.0 22.0 0.00 0.00 0.00 10 811.8
20260510060607 38 356 18.0 25.0 0.00 0.00 0.00 10 811.8
20260510060457 38 355 21.0 26.0 0.00 0.00 0.00 10 811.8
20260510060237 38 4 23.0 29.0 0.00 0.00 0.00 10 811.5
20260510060127 38 2 25.0 33.0 0.00 0.00 0.00 10 811.7
20260510060017 38 1 20.0 30.0 0.00 0.00 0.00 10 811.8
20260510055758 38 358 26.0 33.0 0.00 0.00 0.00 10 811.5
20260510055647 38 355 22.0 40.0 0.00 0.00 0.00 10 811.7
20260510055537 38 9 21.0 27.0 0.00 0.00 0.00 10 811.5
20260510055428 38 356 25.0 35.0 0.00 0.00 0.00 10 811.5
20260510055317 38 356 25.0 32.0 0.00 0.00 0.00 10 811.8
20260510054948 39 9 23.0 32.0 0.00 0.00 0.00 10 811.7
20260510054727 39 0 25.0 29.0 0.00 0.00 0.00 10 811.5
20260510054617 39 0 26.0 33.0 0.00 0.00 0.00 10 811.4
20260510054507 39 358 21.0 27.0 0.00 0.00 0.00 10 811.4
20260510054357 39 349 17.0 26.0 0.00 0.00 0.00 10 811.7
20260510054247 39 354 20.0 32.0 0.00 0.00 0.00 10 811.7
20260510054027 39 353 23.0 29.0 0.00 0.00 0.00 10 811.4
20260510053917 39 3 24.0 32.0 0.00 0.00 0.00 10 811.4
20260510053807 39 355 23.0 37.0 0.00 0.00 0.00 10 811.3
20260510053657 39 358 18.0 26.0 0.00 0.00 0.00 10 811.7
20260510053547 39 354 25.0 36.0 0.00 0.00 0.00 10 811.7
20260510053437 39 355 25.0 35.0 0.00 0.00 0.00 10 811.7
20260510053327 39 339 15.0 27.0 0.00 0.00 0.00 10 811.8
20260510053217 39 352 17.0 29.0 0.00 0.00 0.00 10 811.8
20260510053107 39 347 16.0 27.0 0.00 0.00 0.00 10 811.5
20260510052957 39 356 16.0 28.0 0.00 0.00 0.00 10 811.8
20260510052847 39 356 18.0 33.0 0.00 0.00 0.00 10 811.8
20260510052737 39 347 16.0 28.0 0.00 0.00 0.00 10 811.8
20260510052517 39 356 20.0 35.0 0.00 0.00 0.00 10 811.9
20260510052407 39 333 11.0 23.0 0.00 0.00 0.00 10 811.5
20260510052258 39 337 15.0 30.0 0.00 0.00 0.00 10 811.7
20260510052148 39 351 17.0 32.0 0.00 0.00 0.00 10 811.8
20260510052037 39 5 14.0 27.0 0.00 0.00 0.00 10 811.5
20260510051928 39 358 13.0 21.0 0.00 0.00 0.00 10 811.8
20260510051709 39 0 17.0 22.0 0.00 0.00 0.00 10 811.8
20260510051559 39 7 17.0 25.0 0.00 0.00 0.00 10 811.8
20260510051448 39 356 19.0 26.0 0.00 0.00 0.00 10 811.8
20260510051341 39 357 18.0 23.0 0.00 0.00 0.00 10 811.8
20260510051228 39 5 21.0 27.0 0.00 0.00 0.00 10 811.7
20260510051118 39 4 21.0 28.0 0.00 0.00 0.00 10 811.7
20260510051008 39 5 19.0 23.0 0.00 0.00 0.00 10 811.7
20260510050859 39 1 21.0 27.0 0.00 0.00 0.00 10 811.7
20260510050749 39 0 25.0 30.0 0.00 0.00 0.00 10 811.4
20260510050638 39 8 19.0 27.0 0.00 0.00 0.00 10 811.7
20260510050527 39 349 20.0 26.0 0.00 0.00 0.00 10 811.8
20260510050417 39 349 17.0 23.0 0.00 0.00 0.00 10 811.8
20260510050307 39 4 20.0 25.0 0.00 0.00 0.00 10 811.8
20260510050157 39 354 15.0 18.0 0.00 0.00 0.00 10 811.8
20260510050047 39 0 23.0 27.0 0.00 0.00 0.00 10 811.5
20260510045827 39 351 20.0 24.0 0.00 0.00 0.00 10 811.8
20260510045717 39 2 19.0 23.0 0.00 0.00 0.00 10 811.8
20260510045607 39 0 16.0 23.0 0.00 0.00 0.00 10 811.8
20260510045457 39 2 18.0 22.0 0.00 0.00 0.00 10 811.8
20260510045238 38 3 20.0 25.0 0.00 0.00 0.00 10 811.7
20260510045127 38 11 20.0 24.0 0.00 0.00 0.00 10 811.8
20260510045017 38 8 16.0 20.0 0.00 0.00 0.00 10 811.8
20260510044537 38 12 16.0 26.0 0.00 0.00 0.00 10 811.5
20260510044427 38 18 17.0 25.0 0.00 0.00 0.00 10 811.5
20260510044058 38 20 17.0 24.0 0.00 0.00 0.00 10 811.7
20260510043947 38 20 15.0 23.0 0.00 0.00 0.00 10 811.7
20260510043837 38 25 19.0 27.0 0.00 0.00 0.00 10 811.5
20260510043727 38 18 19.0 27.0 0.00 0.00 0.00 10 811.3
20260510043617 38 16 22.0 29.0 0.00 0.00 0.00 10 811.4
20260510043507 38 31 19.0 27.0 0.00 0.00 0.00 10 811.4
20260510043357 38 15 22.0 31.0 0.00 0.00 0.00 10 811.4
20260510043247 38 15 20.0 29.0 0.00 0.00 0.00 10 811.4
20260510043137 38 19 19.0 30.0 0.00 0.00 0.00 10 811.4
20260510042917 38 22 19.0 30.0 0.00 0.00 0.00 10 811.4
20260510042807 38 18 19.0 26.0 0.00 0.00 0.00 10 811.7
20260510042547 38 0 21.0 25.0 0.00 0.00 0.00 10 811.4
20260510042438 38 8 23.0 27.0 0.00 0.00 0.00 10 811.4
20260510042217 38 9 24.0 30.0 0.00 0.00 0.00 10 811.4
20260510042107 38 8 23.0 28.0 0.00 0.00 0.00 10 811.4
20260510041957 38 4 20.0 27.0 0.00 0.00 0.00 10 811.4
20260510041847 39 10 23.0 28.0 0.00 0.00 0.00 10 811.4
20260510041627 39 10 19.0 24.0 0.00 0.00 0.00 10 811.4
20260510041518 39 5 20.0 26.0 0.00 0.00 0.00 10 811.5
20260510041407 39 6 20.0 26.0 0.00 0.00 0.00 10 811.5
20260510041257 39 0 15.0 19.0 0.00 0.00 0.00 10 811.7
20260510041037 39 352 17.0 22.0 0.00 0.00 0.00 10 811.7
20260510040927 39 357 16.0 21.0 0.00 0.00 0.00 10 811.7
20260510040817 39 356 17.0 21.0 0.00 0.00 0.00 10 811.7
20260510040708 39 0 18.0 21.0 0.00 0.00 0.00 10 811.5
20260510040447 39 355 14.0 19.0 0.00 0.00 0.00 10 811.5
20260510040337 39 353 17.0 21.0 0.00 0.00 0.00 10 811.7
20260510040227 39 0 17.0 21.0 0.00 0.00 0.00 10 811.4
20260510040117 39 0 16.0 21.0 0.00 0.00 0.00 10 811.5
20260510040007 39 353 18.0 21.0 0.00 0.00 0.00 10 811.5
20260510035857 39 358 18.0 21.0 0.00 0.00 0.00 10 811.7
20260510035747 39 352 17.0 21.0 0.00 0.00 0.00 10 811.5
20260510035637 39 352 16.0 21.0 0.00 0.00 0.00 10 811.5
20260510035417 39 356 17.0 21.0 0.00 0.00 0.00 10 811.4
20260510035157 39 4 19.0 24.0 0.00 0.00 0.00 10 811.4
20260510035047 39 3 17.0 22.0 0.00 0.00 0.00 10 811.4
20260510034938 39 1 17.0 21.0 0.00 0.00 0.00 10 811.4
20260510034827 39 6 19.0 24.0 0.00 0.00 0.00 10 811.3
20260510034717 39 10 21.0 25.0 0.00 0.00 0.00 10 811.3
20260510034607 39 13 20.0 27.0 0.00 0.00 0.00 10 811.3
20260510034457 39 13 23.0 31.0 0.00 0.00 0.00 10 811.1
20260510034347 39 15 20.0 25.0 0.00 0.00 0.00 10 811.3
20260510034237 39 11 22.0 27.0 0.00 0.00 0.00 10 811.3
20260510034127 39 9 23.0 28.0 0.00 0.00 0.00 10 811.1
20260510034018 39 11 21.0 28.0 0.00 0.00 0.00 10 811.0
20260510033907 39 8 21.0 26.0 0.00 0.00 0.00 10 811.3
20260510033757 39 9 22.0 26.0 0.00 0.00 0.00 10 811.0
20260510033647 39 12 22.0 27.0 0.00 0.00 0.00 10 811.3
20260510033537 39 6 20.0 27.0 0.00 0.00 0.00 10 811.3
20260510033427 39 6 22.0 27.0 0.00 0.00 0.00 10 811.1
20260510033317 39 8 22.0 26.0 0.00 0.00 0.00 10 811.3
20260510033207 39 8 19.0 23.0 0.00 0.00 0.00 10 811.3
20260510033057 39 8 16.0 23.0 0.00 0.00 0.00 10 811.3
20260510032947 39 10 19.0 24.0 0.00 0.00 0.00 10 811.3
20260510032837 39 9 19.0 23.0 0.00 0.00 0.00 10 811.3
20260510032617 39 7 18.0 22.0 0.00 0.00 0.00 10 811.3
20260510032507 39 14 18.0 21.0 0.00 0.00 0.00 10 811.3
20260510032357 39 13 16.0 22.0 0.00 0.00 0.00 10 811.3
20260510032247 39 10 18.0 21.0 0.00 0.00 0.00 10 811.3
20260510032137 39 7 19.0 24.0 0.00 0.00 0.00 10 811.3
20260510032027 39 10 18.0 24.0 0.00 0.00 0.00 10 811.3
20260510031807 39 16 15.0 22.0 0.00 0.00 0.00 10 811.3
20260510031657 39 35 14.0 20.0 0.00 0.00 0.00 10 811.3
20260510031547 39 31 13.0 21.0 0.00 0.00 0.00 10 811.3
20260510031437 39 34 16.0 21.0 0.00 0.00 0.00 10 811.3
20260510031327 39 39 16.0 22.0 0.00 0.00 0.00 10 811.3
20260510031107 39 35 15.0 22.0 0.00 0.00 0.00 10 811.1
20260510030957 39 34 15.0 23.0 0.00 0.00 0.00 10 811.1
20260510030847 39 21 15.0 20.0 0.00 0.00 0.00 10 811.1
20260510030737 39 28 17.0 22.0 0.00 0.00 0.00 10 811.1
20260510030627 39 24 14.0 24.0 0.00 0.00 0.00 10 811.1
20260510030517 39 25 15.0 21.0 0.00 0.00 0.00 10 811.1
20260510030407 39 31 13.0 22.0 0.00 0.00 0.00 10 811.3
20260510030257 39 24 15.0 24.0 0.00 0.00 0.00 10 811.3
20260510030147 39 19 13.0 22.0 0.00 0.00 0.00 10 811.1
20260510025927 39 13 15.0 20.0 0.00 0.00 0.00 10 811.3
20260510025817 39 8 15.0 21.0 0.00 0.00 0.00 10 811.4
20260510025707 39 11 15.0 19.0 0.00 0.00 0.00 10 811.3
20260510025557 39 14 16.0 21.0 0.00 0.00 0.00 10 811.1
20260510025337 39 15 16.0 21.0 0.00 0.00 0.00 10 811.3
20260510025227 39 8 17.0 23.0 0.00 0.00 0.00 10 811.3
20260510025117 39 14 19.0 24.0 0.00 0.00 0.00 10 811.1
20260510025007 39 18 17.0 24.0 0.00 0.00 0.00 10 811.1
20260510024857 39 14 19.0 23.0 0.00 0.00 0.00 10 811.1
20260510024747 39 15 20.0 26.0 0.00 0.00 0.00 10 810.9
20260510024527 39 13 18.0 22.0 0.00 0.00 0.00 10 811.0
20260510024417 39 12 20.0 25.0 0.00 0.00 0.00 10 810.9
20260510024307 39 11 20.0 23.0 0.00 0.00 0.00 10 811.1
20260510024157 39 6 21.0 26.0 0.00 0.00 0.00 10 811.0
20260510024047 39 11 20.0 25.0 0.00 0.00 0.00 10 811.0
20260510023937 39 0 18.0 22.0 0.00 0.00 0.00 10 811.1
20260510023827 39 2 19.0 24.0 0.00 0.00 0.00 10 811.1
20260510023717 39 1 18.0 23.0 0.00 0.00 0.00 10 811.1
20260510023607 39 357 18.0 23.0 0.00 0.00 0.00 10 811.1
20260510023457 39 1 18.0 23.0 0.00 0.00 0.00 10 811.3
20260510023347 39 356 21.0 28.0 0.00 0.00 0.00 10 811.3
20260510023237 39 350 15.0 20.0 0.00 0.00 0.00 10 811.3
20260510023127 39 353 14.0 22.0 0.00 0.00 0.00 10 811.3
20260510023017 39 0 15.0 25.0 0.00 0.00 0.00 10 811.3
20260510022907 40 355 10.0 18.0 0.00 0.00 0.00 10 811.3
20260510022757 40 357 18.0 27.0 0.00 0.00 0.00 10 811.3
20260510022647 40 356 14.0 23.0 0.00 0.00 0.00 10 811.3
20260510022537 40 351 19.0 25.0 0.00 0.00 0.00 10 811.0
20260510022427 40 348 20.0 26.0 0.00 0.00 0.00 10 811.0
20260510022317 40 353 15.0 22.0 0.00 0.00 0.00 10 811.3
20260510022207 40 358 14.0 19.0 0.00 0.00 0.00 10 811.3
20260510022057 40 350 15.0 20.0 0.00 0.00 0.00 10 811.3
20260510021947 40 352 13.0 19.0 0.00 0.00 0.00 10 811.4
20260510021837 40 347 12.0 19.0 0.00 0.00 0.00 10 811.3
20260510021727 40 356 12.0 21.0 0.00 0.00 0.00 10 811.4
20260510021617 40 345 14.0 25.0 0.00 0.00 0.00 10 811.4
20260510021507 40 337 12.0 20.0 0.00 0.00 0.00 10 811.4
20260510021247 40 351 14.0 19.0 0.00 0.00 0.00 10 811.4
20260510021027 40 355 14.0 20.0 0.00 0.00 0.00 10 811.4
20260510020917 40 339 9.0 16.0 0.00 0.00 0.00 10 811.7
20260510020807 40 341 6.0 12.0 0.00 0.00 0.00 10 811.7
20260510020657 40 343 9.0 14.0 0.00 0.00 0.00 10 811.7
20260510020547 40 335 8.0 15.0 0.00 0.00 0.00 10 811.5
20260510020437 40 320 10.0 16.0 0.00 0.00 0.00 10 811.4
20260510020217 40 324 11.0 18.0 0.00 0.00 0.00 10 811.7
20260510020107 40 295 10.0 17.0 0.00 0.00 0.00 10 811.5
20260510015957 40 342 12.0 18.0 0.00 0.00 0.00 10 811.4
20260510015847 40 357 15.0 19.0 0.00 0.00 0.00 10 811.3
20260510015627 40 342 10.0 17.0 0.00 0.00 0.00 10 811.4
20260510015517 40 336 12.0 23.0 0.00 0.00 0.00 10 811.5
20260510015407 40 350 9.0 19.0 0.00 0.00 0.00 10 811.4
20260510015257 40 335 12.0 19.0 0.00 0.00 0.00 10 811.4
20260510015147 40 348 6.0 13.0 0.00 0.00 0.00 10 811.5
20260510015037 40 337 12.0 20.0 0.00 0.00 0.00 10 811.4
20260510014927 40 338 11.0 20.0 0.00 0.00 0.00 10 811.7
20260510014817 40 341 7.0 15.0 0.00 0.00 0.00 10 811.7
20260510014707 40 351 14.0 19.0 0.00 0.00 0.00 10 811.4
20260510014557 40 345 14.0 25.0 0.00 0.00 0.00 10 811.3
20260510014447 40 319 9.0 18.0 0.00 0.00 0.00 10 811.5
20260510014337 40 338 12.0 19.0 0.00 0.00 0.00 10 811.4
20260510014227 40 340 17.0 24.0 0.00 0.00 0.00 10 811.3
20260510014117 40 349 12.0 19.0 0.00 0.00 0.00 10 811.4
20260510013857 40 354 15.0 26.0 0.00 0.00 0.00 10 811.5
20260510013747 40 351 16.0 21.0 0.00 0.00 0.00 10 811.4
20260510013637 40 354 19.0 23.0 0.00 0.00 0.00 10 811.3
20260510013417 40 9 16.0 19.0 0.00 0.00 0.00 10 811.4
20260510013157 40 355 14.0 18.0 0.00 0.00 0.00 10 811.4
20260510012937 40 349 17.0 22.0 0.00 0.00 0.00 10 811.3
20260510012717 40 352 12.0 22.0 0.00 0.00 0.00 10 811.3
20260510012607 40 332 8.0 13.0 0.00 0.00 0.00 10 811.7
20260510012457 40 356 10.0 14.0 0.00 0.00 0.00 10 811.7
20260510012347 40 357 14.0 19.0 0.00 0.00 0.00 10 811.5
20260510012237 40 350 9.0 18.0 0.00 0.00 0.00 10 811.5
20260510012127 40 319 10.0 18.0 0.00 0.00 0.00 10 811.5
20260510012017 40 338 11.0 18.0 0.00 0.00 0.00 10 811.7
20260510011907 40 344 11.0 17.0 0.00 0.00 0.00 10 811.7
20260510011757 40 343 9.0 16.0 0.00 0.00 0.00 10 811.7
20260510011647 40 311 10.0 17.0 0.00 0.00 0.00 10 811.7
20260510011537 40 343 15.0 21.0 0.00 0.00 0.00 10 811.4
20260510011427 40 351 13.0 21.0 0.00 0.00 0.00 10 811.7
20260510011317 40 352 13.0 20.0 0.00 0.00 0.00 10 811.5
20260510011207 40 345 14.0 19.0 0.00 0.00 0.00 10 811.4
20260510011057 40 358 13.0 19.0 0.00 0.00 0.00 10 811.4
20260510010947 40 347 16.0 21.0 0.00 0.00 0.00 10 811.3
20260510010837 40 337 10.0 13.0 0.00 0.00 0.00 10 811.7
20260510010727 40 2 14.0 21.0 0.00 0.00 0.00 10 811.4
20260510010617 40 349 14.0 22.0 0.00 0.00 0.00 10 811.7
20260510010507 40 330 10.0 19.0 0.00 0.00 0.00 10 811.7
20260510010357 40 346 15.0 24.0 0.00 0.00 0.00 10 811.7
20260510010137 40 344 16.0 24.0 0.00 0.00 0.00 10 811.4
20260510010027 40 288 10.0 18.0 0.00 0.00 0.00 10 811.7
20260510005917 40 0 17.0 23.0 0.00 0.00 0.00 10 811.3
20260510005657 40 345 13.0 23.0 0.00 0.00 0.00 10 811.5
20260510005546 40 331 8.0 17.0 0.00 0.00 0.00 10 811.7
20260510005437 40 337 9.0 18.0 0.00 0.00 0.00 10 811.7
20260510005327 40 324 13.0 22.0 0.00 0.00 0.00 10 811.7
20260510005217 40 321 12.0 23.0 0.00 0.00 0.00 10 811.7
20260510005107 40 347 10.0 20.0 0.00 0.00 0.00 10 811.7
20260510004847 40 358 12.0 17.0 0.00 0.00 0.00 10 811.4
20260510004737 40 2 12.0 21.0 0.00 0.00 0.00 10 811.4
20260510004626 40 310 11.0 19.0 0.00 0.00 0.00 10 811.5
20260510004517 40 331 11.0 20.0 0.00 0.00 0.00 10 811.7
20260510004407 40 327 9.0 16.0 0.00 0.00 0.00 10 811.4
20260510004147 40 336 11.0 24.0 0.00 0.00 0.00 10 811.7
20260510004037 40 350 11.0 21.0 0.00 0.00 0.00 10 811.7
20260510003926 40 335 15.0 19.0 0.00 0.00 0.00 10 811.4
20260510003706 40 342 20.0 26.0 0.00 0.00 0.00 10 811.3
20260510003447 40 355 19.0 25.0 0.00 0.00 0.00 10 811.3
20260510003337 40 353 17.0 23.0 0.00 0.00 0.00 10 811.3
20260510003227 40 3 16.0 22.0 0.00 0.00 0.00 10 811.4
20260510003117 40 9 17.0 21.0 0.00 0.00 0.00 10 811.3
20260510003006 40 355 21.0 29.0 0.00 0.00 0.00 10 811.3
20260510002856 40 352 19.0 24.0 0.00 0.00 0.00 10 811.4
20260510002746 40 353 18.0 27.0 0.00 0.00 0.00 10 811.4
20260510002637 40 353 17.0 21.0 0.00 0.00 0.00 10 811.4
20260510002527 40 352 19.0 27.0 0.00 0.00 0.00 10 811.4
20260510002307 40 357 18.0 23.0 0.00 0.00 0.00 10 811.3
20260510002156 40 358 18.0 23.0 0.00 0.00 0.00 10 811.3
20260510002047 40 348 18.0 25.0 0.00 0.00 0.00 10 811.3
20260510001936 40 348 16.0 20.0 0.00 0.00 0.00 10 811.7
20260510001826 40 2 17.0 22.0 0.00 0.00 0.00 10 811.4
20260510001717 40 357 17.0 22.0 0.00 0.00 0.00 10 811.4
20260510001607 40 354 16.0 21.0 0.00 0.00 0.00 10 811.5
20260510001457 40 345 17.0 26.0 0.00 0.00 0.00 10 811.5
20260510001347 40 353 17.0 25.0 0.00 0.00 0.00 10 811.5
20260510001126 40 358 14.0 21.0 0.00 0.00 0.00 10 811.7
20260510001016 40 0 11.0 18.0 0.00 0.00 0.00 10 811.4
20260510000906 40 352 12.0 16.0 0.00 0.00 0.00 10 811.7
20260510000756 40 355 7.0 13.0 0.00 0.00 0.00 10 811.7
20260510000537 40 348 12.0 18.0 0.00 0.00 0.00 10 811.7
20260510000427 40 339 15.0 23.0 0.00 0.00 0.00 10 811.4
20260510000318 40 344 10.0 17.0 0.00 0.00 0.00 10 811.5
20260510000057 40 323 17.0 25.0 0.00 0.00 0.00 10 811.7
20260509235727 40 348 6.0 18.0 0.00 0.00 0.00 10 811.8
20260509235617 40 339 8.0 18.0 0.00 0.00 0.00 10 811.8
20260509235356 40 324 11.0 20.0 0.00 0.00 0.00 10 811.8
20260509235246 40 323 15.0 26.0 0.00 0.00 0.00 10 811.7
20260509235137 40 334 10.0 22.0 0.00 0.00 0.00 10 811.7
20260509235027 40 311 9.0 17.0 0.00 0.00 0.00 10 811.8
20260509234916 40 312 9.0 15.0 0.00 0.00 0.00 10 811.8
20260509234807 40 314 9.0 18.0 0.00 0.00 0.00 10 811.8
20260509234656 40 316 12.0 19.0 0.00 0.00 0.00 10 811.8
20260509234546 40 319 11.0 18.0 0.00 0.00 0.00 10 811.8
20260509234437 40 309 14.0 22.0 0.00 0.00 0.00 10 811.7
20260509234327 40 330 12.0 18.0 0.00 0.00 0.00 10 811.7
20260509234107 40 314 9.0 19.0 0.00 0.00 0.00 10 811.8
20260509233957 40 326 14.0 19.0 0.00 0.00 0.00 10 811.7
20260509233847 40 325 12.0 22.0 0.00 0.00 0.00 10 811.8
20260509233736 40 319 13.0 20.0 0.00 0.00 0.00 10 811.8
20260509233626 40 336 10.0 15.0 0.00 0.00 0.00 10 811.8
20260509233517 40 341 15.0 20.0 0.00 0.00 0.00 10 811.8
20260509233406 40 346 12.0 20.0 0.00 0.00 0.00 10 811.7
20260509233256 40 341 11.0 17.0 0.00 0.00 0.00 10 811.8
20260509233147 40 320 13.0 21.0 0.00 0.00 0.00 10 811.8
20260509233037 40 311 10.0 19.0 0.00 0.00 0.00 10 811.8
20260509232926 40 327 11.0 19.0 0.00 0.00 0.00 10 811.8
20260509232816 40 341 11.0 20.0 0.00 0.00 0.00 10 811.8
20260509232707 40 340 8.0 14.0 0.00 0.00 0.00 10 811.9
20260509232557 40 334 10.0 18.0 0.00 0.00 0.00 10 811.8
20260509232446 40 340 12.0 15.0 0.00 0.00 0.00 10 811.8
20260509232337 40 350 12.0 17.0 0.00 0.00 0.00 10 811.8
20260509232226 40 353 11.0 17.0 0.00 0.00 0.00 10 812.1
20260509232116 40 337 8.0 12.0 0.00 0.00 0.00 10 812.1
20260509232006 40 326 8.0 15.0 0.00 0.00 0.00 10 811.9
20260509231856 40 331 8.0 18.0 0.00 0.00 0.00 10 811.8
20260509231746 40 325 11.0 20.0 0.00 0.00 0.00 10 811.8
20260509231637 40 314 13.0 24.0 0.00 0.00 0.00 10 811.9
20260509231527 40 333 11.0 22.0 0.00 0.00 0.00 10 812.1
20260509231417 40 335 12.0 19.0 0.00 0.00 0.00 10 811.9
20260509231306 40 321 14.0 20.0 0.00 0.00 0.00 10 812.1
20260509231156 40 322 17.0 23.0 0.00 0.00 0.00 10 811.9
20260509231046 40 328 11.0 20.0 0.00 0.00 0.00 10 812.1
20260509230937 40 319 13.0 22.0 0.00 0.00 0.00 10 812.1
20260509230826 40 312 13.0 20.0 0.00 0.00 0.00 10 812.1
20260509230717 40 319 11.0 17.0 0.00 0.00 0.00 10 812.1
20260509230607 40 313 16.0 23.0 0.00 0.00 0.00 10 811.8
20260509230346 40 310 12.0 23.0 0.00 0.00 0.00 10 812.2
20260509230237 40 305 14.0 20.0 0.00 0.00 0.00 10 812.1
20260509230126 40 315 16.0 21.0 0.00 0.00 0.00 10 811.9
20260509230017 40 310 17.0 23.0 0.00 0.00 0.00 10 812.1
20260509225906 41 318 13.0 17.0 0.00 0.00 0.00 10 812.1
20260509225757 40 326 15.0 23.0 0.00 0.00 0.00 10 812.1
20260509225647 41 310 14.0 21.0 0.00 0.00 0.00 10 812.1
20260509225536 41 313 11.0 23.0 0.00 0.00 0.00 10 812.1
20260509225426 41 315 14.0 21.0 0.00 0.00 0.00 10 812.2
20260509225057 41 314 10.0 17.0 0.00 0.00 0.00 10 812.2
20260509224947 41 312 15.0 22.0 0.00 0.00 0.00 10 812.1
20260509224836 41 316 13.0 23.0 0.00 0.00 0.00 10 812.2
20260509224616 41 311 12.0 17.0 0.00 0.00 0.00 10 812.1
20260509224507 41 304 15.0 25.0 0.00 0.00 0.00 10 812.1
20260509224247 41 310 12.0 16.0 0.00 0.00 0.00 10 812.2
20260509224137 41 309 11.0 15.0 0.00 0.00 0.00 10 812.2
20260509224026 41 308 12.0 17.0 0.00 0.00 0.00 10 812.2
20260509223917 41 307 13.0 19.0 0.00 0.00 0.00 10 812.1
20260509223656 41 320 14.0 21.0 0.00 0.00 0.00 10 812.1
20260509223546 41 311 14.0 19.0 0.00 0.00 0.00 10 812.2
20260509223326 41 313 10.0 14.0 0.00 0.00 0.00 10 812.2
20260509223217 41 310 8.0 15.0 0.00 0.00 0.00 10 812.2
20260509223106 41 311 6.0 10.0 0.00 0.00 0.00 10 812.2
20260509222956 41 307 9.0 12.0 0.00 0.00 0.00 10 812.2
20260509222846 41 308 12.0 17.0 0.00 0.00 0.00 10 812.2
20260509222736 41 319 11.0 17.0 0.00 0.00 0.00 10 812.2
20260509222517 41 317 9.0 15.0 0.00 0.00 0.00 10 812.2
20260509222407 41 322 10.0 15.0 0.00 0.00 0.00 10 812.2
20260509222146 41 342 8.0 12.0 0.00 0.00 0.00 10 812.2
20260509222036 41 316 12.0 17.0 0.00 0.00 0.00 10 812.2
20260509221926 41 342 4.0 12.0 0.00 0.00 0.00 10 812.3
20260509221816 41 330 7.0 14.0 0.00 0.00 0.00 10 812.2
20260509221706 41 309 10.0 14.0 0.00 0.00 0.00 10 812.2
20260509221557 41 341 8.0 17.0 0.00 0.00 0.00 10 812.2
20260509221446 41 336 9.0 17.0 0.00 0.00 0.00 10 812.2
20260509221226 41 330 8.0 14.0 0.00 0.00 0.00 10 812.2
20260509221116 41 330 9.0 17.0 0.00 0.00 0.00 10 812.2
20260509221006 41 336 7.0 13.0 0.00 0.00 0.00 10 812.2
20260509220856 41 310 12.0 17.0 0.00 0.00 0.00 10 812.2
20260509220747 41 337 15.0 19.0 0.00 0.00 0.00 10 812.2
20260509220637 41 294 8.0 21.0 0.00 0.00 0.00 10 812.2
20260509220416 41 310 8.0 15.0 0.00 0.00 0.00 10 812.2
20260509220306 41 338 7.0 15.0 0.00 0.00 0.00 10 812.2
20260509220156 41 335 12.0 18.0 0.00 0.00 0.00 10 812.2
20260509220046 41 301 11.0 20.0 0.00 0.00 0.00 10 812.2
20260509215937 41 311 9.0 17.0 0.00 0.00 0.00 10 812.3
20260509215826 41 321 11.0 18.0 0.00 0.00 0.00 10 812.2
20260509215716 41 331 9.0 18.0 0.00 0.00 0.00 10 812.2
20260509215606 41 325 8.0 14.0 0.00 0.00 0.00 10 812.3
20260509215456 41 315 7.0 13.0 0.00 0.00 0.00 10 812.3
20260509215346 41 349 11.0 16.0 0.00 0.00 0.00 10 812.2
20260509215236 41 320 12.0 18.0 0.00 0.00 0.00 10 812.2
20260509215127 41 336 11.0 17.0 0.00 0.00 0.00 10 812.2
20260509214906 41 336 13.0 21.0 0.00 0.00 0.00 10 812.2
20260509214536 41 342 10.0 16.0 0.00 0.00 0.00 10 812.2
20260509214426 41 310 8.0 21.0 0.00 0.00 0.00 10 812.2
20260509214206 41 328 15.0 24.0 0.00 0.00 0.00 10 812.2
20260509214056 41 326 12.0 20.0 0.00 0.00 0.00 10 812.3
20260509213946 41 331 11.0 15.0 0.00 0.00 0.00 10 812.2
20260509213836 41 329 10.0 14.0 0.00 0.00 0.00 10 812.3
20260509213726 41 332 12.0 16.0 0.00 0.00 0.00 10 812.3
20260509213616 41 333 10.0 15.0 0.00 0.00 0.00 10 812.3
20260509213506 41 337 11.0 15.0 0.00 0.00 0.00 10 812.2
20260509213246 41 335 7.0 11.0 0.00 0.00 0.00 10 812.3
20260509213136 41 352 10.0 13.0 0.00 0.00 0.00 10 812.2
20260509212916 41 355 11.0 15.0 0.00 0.00 0.00 10 812.3
20260509212806 41 2 10.0 12.0 0.00 0.00 0.00 10 812.3
20260509212656 41 7 10.0 12.0 0.00 0.00 0.00 10 812.3
20260509212546 41 8 10.0 12.0 0.00 0.00 0.00 10 812.2
20260509212437 41 9 10.0 12.0 0.00 0.00 0.00 10 812.2
20260509212327 41 12 11.0 13.0 0.00 0.00 0.00 10 812.3
20260509212216 41 8 9.0 12.0 0.00 0.00 0.00 10 812.3
20260509212106 41 3 10.0 14.0 0.00 0.00 0.00 10 812.2
20260509211956 41 6 9.0 12.0 0.00 0.00 0.00 10 812.3
20260509211846 41 29 8.0 11.0 0.00 0.00 0.00 10 812.3
20260509211736 41 18 8.0 10.0 0.00 0.00 0.00 10 812.5
20260509211626 41 16 8.0 11.0 0.00 0.00 0.00 10 812.3
20260509211517 41 13 9.0 12.0 0.00 0.00 0.00 10 812.3
20260509211407 41 14 10.0 12.0 0.00 0.00 0.00 10 812.3
20260509211146 41 19 9.0 12.0 0.00 0.00 0.00 10 812.3
20260509211036 41 16 10.0 13.0 0.00 0.00 0.00 10 812.3
20260509210926 41 21 10.0 12.0 0.00 0.00 0.00 10 812.3
20260509210706 41 14 10.0 12.0 0.00 0.00 0.00 10 812.5
20260509210557 41 17 10.0 14.0 0.00 0.00 0.00 10 812.3
20260509210226 41 22 9.0 12.0 0.00 0.00 0.00 10 812.5
20260509210116 41 18 10.0 13.0 0.00 0.00 0.00 10 812.5
20260509210007 41 18 11.0 13.0 0.00 0.00 0.00 10 812.5
20260509205857 41 21 10.0 13.0 0.00 0.00 0.00 10 812.5
20260509205746 40 20 10.0 13.0 0.00 0.00 0.00 10 812.5
20260509205636 40 21 10.0 12.0 0.00 0.00 0.00 10 812.3
20260509205526 40 18 11.0 13.0 0.00 0.00 0.00 10 812.3
20260509205416 40 19 11.0 14.0 0.00 0.00 0.00 10 812.3
20260509205307 40 19 12.0 15.0 0.00 0.00 0.00 10 812.3
20260509205156 40 20 11.0 13.0 0.00 0.00 0.00 10 812.3
20260509205046 40 21 10.0 13.0 0.00 0.00 0.00 10 812.3
20260509204936 40 24 10.0 13.0 0.00 0.00 0.00 10 812.3
20260509204716 40 25 11.0 13.0 0.00 0.00 0.00 10 812.5
20260509204607 40 28 10.0 13.0 0.00 0.00 0.00 10 812.5
20260509204457 40 27 10.0 12.0 0.00 0.00 0.00 10 812.5
20260509204347 40 27 10.0 12.0 0.00 0.00 0.00 10 812.5
20260509204127 40 30 10.0 12.0 0.00 0.00 0.00 10 812.5
20260509203756 40 32 9.0 11.0 0.00 0.00 0.00 10 812.5
20260509203646 40 33 10.0 12.0 0.00 0.00 0.00 10 812.5
20260509203537 40 33 10.0 12.0 0.00 0.00 0.00 10 812.5
20260509203428 40 34 10.0 11.0 0.00 0.00 0.00 10 812.6
20260509203318 40 34 10.0 11.0 0.00 0.00 0.00 10 812.5
20260509203207 40 35 10.0 11.0 0.00 0.00 0.00 10 812.5
20260509203057 40 36 11.0 12.0 0.00 0.00 0.00 10 812.5
20260509202947 40 37 10.0 11.0 0.00 0.00 0.00 10 812.5
20260509202728 40 38 9.0 10.0 0.00 0.00 0.00 10 812.6
20260509202617 40 39 9.0 11.0 0.00 0.00 0.00 10 812.5
20260509202509 40 39 10.0 10.0 0.00 0.00 0.00 10 812.5
20260509202357 40 42 10.0 10.0 0.00 0.00 0.00 10 812.5
20260509202248 40 44 10.0 10.0 0.00 0.00 0.00 10 812.5
20260509202137 40 44 10.0 10.0 0.00 0.00 0.00 10 812.5
20260509202027 40 45 10.0 10.0 0.00 0.00 0.00 10 812.6
20260509201917 40 45 10.0 10.0 0.00 0.00 0.00 10 812.5
20260509201807 40 43 10.0 10.0 0.00 0.00 0.00 10 812.6
20260509201657 40 42 10.0 10.0 0.00 0.00 0.00 10 812.5
20260509201546 40 42 10.0 10.0 0.00 0.00 0.00 10 812.6
20260509201436 40 43 10.0 10.0 0.00 0.00 0.00 10 812.5
20260509201326 40 45 10.0 10.0 0.00 0.00 0.00 10 812.6
20260509201216 40 46 10.0 10.0 0.00 0.00 0.00 10 812.6
20260509201107 40 47 10.0 10.0 0.00 0.00 0.00 10 812.6
20260509200957 40 48 10.0 11.0 0.00 0.00 0.00 10 812.6
20260509200847 40 48 10.0 10.0 0.00 0.00 0.00 10 812.6
20260509200627 40 47 10.0 11.0 0.00 0.00 0.00 10 812.5
20260509200517 40 48 10.0 11.0 0.00 0.00 0.00 10 812.5
20260509200407 40 46 11.0 12.0 0.00 0.00 0.00 10 812.5
20260509200257 40 47 11.0 12.0 0.00 0.00 0.00 10 812.5
20260509200149 40 45 12.0 12.0 0.00 0.00 0.00 10 812.5
20260509200038 40 47 12.0 12.0 0.00 0.00 0.00 10 812.5
20260509195926 40 46 12.0 12.0 0.00 0.00 0.00 10 812.6
20260509195816 40 49 11.0 12.0 0.00 0.00 0.00 10 812.6
20260509195557 40 47 12.0 13.0 0.00 0.00 0.00 10 812.6
20260509195447 40 47 12.0 13.0 0.00 0.00 0.00 10 812.5
20260509195339 40 45 12.0 13.0 0.00 0.00 0.00 10 812.5
20260509195227 40 45 11.0 12.0 0.00 0.00 0.00 10 812.5
20260509195116 40 45 11.0 12.0 0.00 0.00 0.00 10 812.5
20260509194856 40 50 10.0 11.0 0.00 0.00 0.00 10 812.6
20260509194746 40 54 10.0 12.0 0.00 0.00 0.00 10 812.6
20260509194638 40 51 10.0 12.0 0.00 0.00 0.00 10 812.6
20260509194527 40 53 11.0 12.0 0.00 0.00 0.00 10 812.6
20260509194417 40 52 11.0 12.0 0.00 0.00 0.00 10 812.5
20260509194306 40 53 11.0 12.0 0.00 0.00 0.00 10 812.6
20260509194156 40 52 12.0 12.0 0.00 0.00 0.00 10 812.6
20260509194046 40 52 12.0 12.0 0.00 0.00 0.00 10 812.5
20260509193937 40 51 12.0 13.0 0.00 0.00 0.00 10 812.5
20260509193827 40 51 12.0 13.0 0.00 0.00 0.00 10 812.5
20260509193717 40 50 12.0 13.0 0.00 0.00 0.00 10 812.6
20260509193607 40 50 11.0 12.0 0.00 0.00 0.00 10 812.5
20260509193457 40 52 12.0 13.0 0.00 0.00 0.00 10 812.5
20260509193347 40 50 12.0 13.0 0.00 0.00 0.00 10 812.5
20260509193237 40 51 12.0 12.0 0.00 0.00 0.00 10 812.3
20260509193127 40 55 11.0 12.0 0.00 0.00 0.00 10 812.5
20260509193017 40 53 12.0 13.0 0.00 0.00 0.00 10 812.5
20260509192908 40 53 12.0 13.0 0.00 0.00 0.00 10 812.3
20260509192758 40 52 12.0 14.0 0.00 0.00 0.00 10 812.3
20260509192646 40 55 11.0 14.0 0.00 0.00 0.00 10 812.3
20260509192536 40 63 11.0 12.0 0.00 0.00 0.00 10 812.3
20260509192316 40 67 11.0 14.0 0.00 0.00 0.00 10 812.3
20260509192207 40 59 12.0 15.0 0.00 0.00 0.00 10 812.3
20260509192057 40 53 11.0 13.0 0.00 0.00 0.00 10 812.3
20260509191948 40 51 13.0 16.0 0.00 0.00 0.00 10 812.3
20260509191836 40 54 12.0 16.0 0.00 0.00 0.00 10 812.3
20260509191726 40 58 12.0 14.0 0.00 0.00 0.00 10 812.5
20260509191616 40 73 11.0 14.0 0.00 0.00 0.00 10 812.3
20260509191506 40 87 12.0 16.0 0.00 0.00 0.00 10 812.3
20260509191356 40 79 11.0 15.0 0.00 0.00 0.00 10 812.5
20260509191246 40 60 13.0 15.0 0.00 0.00 0.00 10 812.3
20260509191136 40 87 13.0 18.0 0.00 0.00 0.00 10 812.3
20260509191026 40 80 12.0 17.0 0.00 0.00 0.00 10 812.5
20260509190917 40 68 12.0 15.0 0.00 0.00 0.00 10 812.2
20260509190807 40 66 12.0 14.0 0.00 0.00 0.00 10 812.2
20260509190656 40 70 12.0 14.0 0.00 0.00 0.00 10 812.2
20260509190546 40 66 13.0 15.0 0.00 0.00 0.00 10 812.2
20260509190437 40 73 13.0 16.0 0.00 0.00 0.00 10 812.2
20260509190326 40 63 11.0 13.0 0.00 0.00 0.00 10 812.3
20260509190216 40 87 12.0 17.0 0.00 0.00 0.00 10 812.3
20260509190106 40 76 10.0 13.0 0.00 0.00 0.00 10 812.3
20260509185846 40 72 12.0 14.0 0.00 0.00 0.00 10 812.3
20260509185736 40 82 11.0 14.0 0.00 0.00 0.00 10 812.5
20260509185626 40 78 12.0 14.0 0.00 0.00 0.00 10 812.3
20260509185406 40 73 12.0 14.0 0.00 0.00 0.00 10 812.3
20260509185256 40 75 12.0 14.0 0.00 0.00 0.00 10 812.5
20260509185146 40 71 13.0 14.0 0.00 0.00 0.00 10 812.2
20260509185036 40 75 12.0 15.0 0.00 0.00 0.00 10 812.2
20260509184926 41 77 11.0 14.0 0.00 0.00 0.00 10 812.3
20260509184226 41 76 11.0 14.0 0.00 0.00 0.00 10 812.2
20260509184116 41 75 12.0 14.0 0.00 0.00 0.00 10 812.3
20260509184006 41 76 12.0 14.0 0.00 0.00 0.00 10 812.3
20260509183856 41 77 10.0 15.0 0.00 0.00 0.00 10 812.3
20260509183746 41 72 11.0 13.0 0.00 0.00 0.00 10 812.2
20260509183636 41 67 12.0 13.0 0.00 0.00 0.00 10 812.2
20260509183526 41 64 11.0 13.0 0.00 0.00 0.00 10 812.2
20260509183416 41 69 11.0 12.0 0.00 0.00 0.00 10 812.2
20260509183306 41 71 11.0 12.0 0.00 0.00 0.00 10 812.2
20260509183156 41 76 11.0 12.0 0.00 0.00 0.00 10 812.3
20260509183046 41 72 12.0 14.0 0.00 0.00 0.00 10 812.2
20260509182826 41 71 13.0 14.0 0.00 0.00 0.00 10 812.2
20260509182606 41 66 12.0 13.0 0.00 0.00 0.00 10 812.2
20260509182456 41 71 11.0 12.0 0.00 0.00 0.00 10 812.2
20260509182346 41 72 12.0 13.0 0.00 0.00 0.00 10 812.2
20260509182236 41 67 12.0 13.0 0.00 0.00 0.00 10 812.2
20260509182016 41 74 12.0 13.0 0.00 0.00 0.00 10 812.2
20260509181906 41 85 11.0 12.0 0.00 0.00 0.00 10 812.2
20260509181756 41 79 11.0 13.0 0.00 0.00 0.00 10 812.2
20260509181646 41 75 12.0 13.0 0.00 0.00 0.00 10 812.2
20260509181536 41 70 12.0 14.0 0.00 0.00 0.00 10 812.2
20260509181426 41 68 12.0 14.0 0.00 0.00 0.00 10 812.2
20260509181316 40 66 13.0 15.0 0.00 0.00 0.00 10 812.2
20260509181206 40 64 13.0 15.0 0.00 0.00 0.00 10 812.2
20260509181056 41 64 13.0 15.0 0.00 0.00 0.00 10 812.2
20260509180836 40 79 10.0 13.0 0.00 0.00 0.00 10 812.2
20260509180726 41 71 12.0 14.0 0.00 0.00 0.00 10 812.2
20260509180616 41 69 13.0 14.0 0.00 0.00 0.00 10 812.2
20260509180506 41 73 12.0 14.0 0.00 0.00 0.00 10 812.2
20260509180356 41 77 12.0 15.0 0.00 0.00 0.00 10 812.2
20260509180246 40 79 12.0 14.0 0.00 0.00 0.00 10 812.2
20260509180136 41 74 10.0 13.0 0.00 0.00 0.00 10 812.2
20260509180026 40 71 12.0 15.0 0.00 0.00 0.00 10 812.2
20260509175916 40 73 12.0 16.0 0.00 0.00 0.00 10 812.2
20260509175806 40 70 12.0 14.0 0.00 0.00 0.00 10 812.2
20260509175656 40 61 12.0 15.0 0.00 0.00 0.00 10 812.2
20260509175546 40 71 12.0 14.0 0.00 0.00 0.00 10 812.1
20260509175436 40 77 11.0 13.0 0.00 0.00 0.00 10 812.2
20260509175326 40 84 10.0 12.0 0.00 0.00 0.00 10 812.1
20260509175106 40 87 11.0 12.0 0.00 0.00 0.00 10 812.2
20260509174956 40 86 11.0 13.0 0.00 0.00 0.00 10 812.2
20260509174846 40 88 10.0 13.0 0.00 0.00 0.00 10 812.1
20260509174736 40 83 10.0 13.0 0.00 0.00 0.00 10 812.1
20260509174516 40 88 10.0 12.0 0.00 0.00 0.00 10 812.2
20260509174406 40 88 9.0 11.0 0.00 0.00 0.00 10 812.1
20260509174256 41 94 9.0 10.0 0.00 0.00 0.00 10 812.2
20260509174146 41 90 9.0 10.0 0.00 0.00 0.00 10 812.2
20260509173706 40 103 7.0 9.0 0.00 0.00 0.00 10 812.2
20260509173446 40 112 8.0 8.0 0.00 0.00 0.00 10 812.1
20260509173336 41 103 9.0 9.0 0.00 0.00 0.00 10 812.2
20260509173226 41 95 9.0 10.0 0.00 0.00 0.00 10 812.1
20260509173116 41 96 8.0 10.0 0.00 0.00 0.00 10 812.2
20260509173006 41 104 9.0 10.0 0.00 0.00 0.00 10 812.1
20260509172856 41 101 9.0 10.0 0.00 0.00 0.00 10 812.1
20260509172746 41 98 8.0 8.0 0.00 0.00 0.00 10 812.1
20260509172636 41 104 7.0 9.0 0.00 0.00 0.00 10 812.1
20260509172526 41 88 7.0 9.0 0.00 0.00 0.00 10 812.1
20260509172416 41 91 6.0 8.0 0.00 0.00 0.00 10 812.1
20260509172307 41 102 7.0 9.0 0.00 0.00 0.00 10 812.1
20260509172156 41 97 9.0 11.0 0.00 0.00 0.00 10 812.1
20260509172046 41 89 8.0 10.0 0.00 0.00 0.00 10 812.1
20260509171936 41 87 7.0 8.0 0.00 0.00 0.00 10 812.1
20260509171716 41 92 8.0 9.0 0.00 0.00 0.00 10 812.1
20260509171456 41 90 7.0 9.0 0.00 0.00 0.00 10 812.1
20260509171346 41 94 8.0 9.0 0.00 0.00 0.00 10 812.1
20260509171236 41 87 8.0 9.0 0.00 0.00 0.00 10 812.1
20260509171126 41 98 8.0 10.0 0.00 0.00 0.00 10 812.1
20260509171016 41 94 8.0 9.0 0.00 0.00 0.00 10 812.1
20260509170906 41 102 9.0 10.0 0.00 0.00 0.00 10 812.1
20260509170756 41 94 9.0 10.0 0.00 0.00 0.00 10 812.1
20260509170646 41 95 9.0 10.0 0.00 0.00 0.00 10 812.1
20260509170536 41 95 10.0 12.0 0.00 0.00 0.00 10 812.1
20260509170426 41 98 10.0 12.0 0.00 0.00 0.00 10 812.1
20260509170316 41 101 9.0 10.0 0.00 0.00 0.00 10 812.1
20260509170206 41 101 9.0 10.0 0.00 0.00 0.00 10 812.1
20260509165946 41 105 10.0 11.0 0.00 0.00 0.00 10 812.1
20260509165836 41 92 8.0 9.0 0.00 0.00 0.00 10 811.9
20260509165726 41 104 9.0 11.0 0.00 0.00 0.00 10 812.1
20260509165616 41 103 10.0 11.0 0.00 0.00 0.00 10 811.9
20260509165356 41 101 8.0 10.0 0.00 0.00 0.00 10 812.1
20260509165246 41 102 9.0 10.0 0.00 0.00 0.00 10 811.9
20260509165136 41 93 10.0 13.0 0.00 0.00 0.00 10 811.9
20260509165026 41 95 10.0 13.0 0.00 0.00 0.00 10 811.9
20260509164916 41 85 8.0 10.0 0.00 0.00 0.00 10 812.1
20260509164806 41 83 8.0 11.0 0.00 0.00 0.00 10 812.1
20260509164656 41 96 9.0 10.0 0.00 0.00 0.00 10 811.9
20260509164546 41 121 6.0 9.0 0.00 0.00 0.00 10 812.1
20260509164436 41 137 4.0 7.0 0.00 0.00 0.00 10 812.1
20260509164216 41 91 6.0 6.0 0.00 0.00 0.00 10 811.9
20260509164106 41 96 6.0 8.0 0.00 0.00 0.00 10 811.9
20260509163956 41 93 8.0 9.0 0.00 0.00 0.00 10 811.9
20260509163736 41 90 8.0 9.0 0.00 0.00 0.00 10 811.9
20260509163626 41 109 6.0 8.0 0.00 0.00 0.00 10 811.8
20260509163516 41 88 6.0 8.0 0.00 0.00 0.00 10 811.9
20260509163406 41 97 7.0 8.0 0.00 0.00 0.00 10 811.9
20260509163256 41 94 8.0 9.0 0.00 0.00 0.00 10 811.9
20260509163146 41 89 7.0 9.0 0.00 0.00 0.00 10 811.8
20260509163036 41 70 6.0 8.0 0.00 0.00 0.00 10 812.1
20260509162926 41 85 7.0 10.0 0.00 0.00 0.00 10 811.8
20260509162816 41 85 7.0 8.0 0.00 0.00 0.00 10 811.9
20260509162706 41 92 8.0 10.0 0.00 0.00 0.00 10 811.9
20260509162556 41 92 6.0 8.0 0.00 0.00 0.00 10 812.1
20260509162446 41 81 6.0 9.0 0.00 0.00 0.00 10 811.9
20260509162336 41 70 3.0 6.0 0.00 0.00 0.00 10 812.1
20260509162226 41 85 4.0 5.0 0.00 0.00 0.00 10 811.8
20260509162116 41 82 5.0 6.0 0.00 0.00 0.00 10 811.8
20260509161857 41 119 3.0 5.0 0.00 0.00 0.00 10 812.1
20260509161747 41 124 6.0 9.0 0.00 0.00 0.00 10 811.9
20260509161637 41 99 6.0 9.0 0.00 0.00 0.00 10 812.1
20260509161527 41 63 6.0 8.0 0.00 0.00 0.00 10 811.9
20260509161417 41 27 5.0 8.0 0.00 0.00 0.00 10 812.1
20260509161157 41 72 7.0 9.0 0.00 0.00 0.00 10 811.9
20260509161047 41 47 4.0 6.0 0.00 0.00 0.00 10 812.1
20260509160937 41 39 5.0 7.0 0.00 0.00 0.00 10 812.1
20260509160827 41 20 3.0 6.0 0.00 0.00 0.00 10 812.1
20260509160717 41 43 3.0 6.0 0.00 0.00 0.00 10 812.1
20260509160607 41 38 5.0 8.0 0.00 0.00 0.00 10 811.9
20260509160457 41 52 5.0 9.0 0.00 0.00 0.00 10 812.1
20260509160236 41 77 5.0 6.0 0.00 0.00 0.00 10 811.9
20260509160126 41 76 6.0 7.0 0.00 0.00 0.00 10 812.1
20260509160017 41 94 6.0 7.0 0.00 0.00 0.00 10 811.9
20260509155907 41 89 6.0 8.0 0.00 0.00 0.00 10 812.1
20260509155757 41 105 4.0 6.0 0.00 0.00 0.00 10 812.1
20260509155648 41 114 3.0 5.0 0.00 0.00 0.00 10 812.1
20260509155536 41 152 3.0 5.0 0.00 0.00 0.00 10 812.1
20260509155426 41 135 3.0 4.0 0.00 0.00 0.00 10 812.1
20260509155317 41 150 4.0 7.0 0.00 0.00 0.00 10 811.8
20260509155206 41 145 6.0 8.0 0.00 0.00 0.00 10 811.8
20260509155057 41 121 5.0 7.0 0.00 0.00 0.00 10 811.8
20260509154947 41 130 6.0 9.0 0.00 0.00 0.00 10 811.8
20260509154836 41 119 7.0 10.0 0.00 0.00 0.00 10 811.8
20260509154726 41 135 6.0 9.0 0.00 0.00 0.00 10 811.8
20260509154616 41 133 8.0 10.0 0.00 0.00 0.00 10 811.8
20260509154506 41 142 6.0 10.0 0.00 0.00 0.00 10 811.8
20260509154357 41 121 8.0 10.0 0.00 0.00 0.00 10 811.8
20260509154247 41 112 10.0 11.0 0.00 0.00 0.00 10 811.8
20260509154137 41 100 9.0 10.0 0.00 0.00 0.00 10 811.8
20260509154028 41 102 10.0 12.0 0.00 0.00 0.00 10 811.8
20260509153917 41 102 9.0 11.0 0.00 0.00 0.00 10 811.8
20260509153806 41 101 9.0 12.0 0.00 0.00 0.00 10 811.8
20260509153657 41 101 8.0 10.0 0.00 0.00 0.00 10 811.8
20260509153546 41 110 9.0 11.0 0.00 0.00 0.00 10 811.8
20260509153436 41 110 9.0 19.0 0.00 0.00 0.00 10 811.8
20260509153327 41 108 9.0 11.0 0.00 0.00 0.00 10 811.8
20260509153217 41 111 7.0 11.0 0.00 0.00 0.00 10 811.8
20260509153107 41 70 8.0 10.0 0.00 0.00 0.00 10 811.8
20260509152957 41 86 9.0 17.0 0.00 0.00 0.00 10 811.8
20260509152846 41 98 12.0 14.0 0.00 0.00 0.00 10 811.8
20260509152627 41 114 9.0 13.0 0.00 0.00 0.00 10 811.8
20260509152517 41 103 10.0 12.0 0.00 0.00 0.00 10 811.8
20260509152406 41 114 11.0 14.0 0.00 0.00 0.00 10 811.8
20260509152256 41 107 10.0 13.0 0.00 0.00 0.00 10 811.8
20260509152146 41 107 13.0 19.0 0.00 0.00 0.00 10 811.8
20260509152037 41 96 11.0 13.0 0.00 0.00 0.00 10 811.8
20260509151927 41 97 11.0 13.0 0.00 0.00 0.00 10 811.8
20260509151817 41 107 10.0 15.0 0.00 0.00 0.00 10 811.8
20260509151557 41 122 8.0 11.0 0.00 0.00 0.00 10 811.8
20260509151336 41 89 12.0 14.0 0.00 0.00 0.00 10 811.8
20260509151227 41 94 11.0 16.0 0.00 0.00 0.00 10 811.8
20260509151117 41 113 8.0 15.0 0.00 0.00 0.00 10 811.8
20260509150747 42 113 10.0 19.0 0.00 0.00 0.00 10 811.9
20260509150638 42 112 10.0 13.0 0.00 0.00 0.00 10 811.9
20260509150527 42 120 10.0 12.0 0.00 0.00 0.00 10 811.9
20260509150306 42 115 8.0 11.0 0.00 0.00 0.00 10 811.9
20260509150046 42 107 10.0 12.0 0.00 0.00 0.00 10 811.9
20260509145937 42 114 10.0 12.0 0.00 0.00 0.00 10 811.9
20260509145827 42 100 10.0 11.0 0.00 0.00 0.00 10 812.1
20260509145718 42 110 9.0 11.0 0.00 0.00 0.00 10 811.9
20260509145607 42 117 7.0 9.0 0.00 0.00 0.00 10 812.1
20260509145456 42 118 4.0 7.0 0.00 0.00 0.00 10 812.1
20260509145346 42 140 3.0 4.0 0.00 0.00 0.00 10 812.1
20260509145236 42 127 3.0 5.0 0.00 0.00 0.00 10 812.1
20260509145127 42 156 5.0 8.0 0.00 0.00 0.00 10 812.1
20260509145018 42 150 5.0 8.0 0.00 0.00 0.00 10 812.1
20260509144757 42 139 6.0 8.0 0.00 0.00 0.00 10 812.1
20260509144647 42 127 6.0 8.0 0.00 0.00 0.00 10 812.1
20260509144536 42 143 5.0 6.0 0.00 0.00 0.00 10 811.9
20260509144426 42 131 4.0 6.0 0.00 0.00 0.00 10 812.1
20260509144316 42 142 4.0 6.0 0.00 0.00 0.00 10 812.1
20260509144207 42 113 6.0 8.0 0.00 0.00 0.00 10 812.1
20260509144056 42 119 6.0 8.0 0.00 0.00 0.00 10 812.1
20260509143946 42 130 5.0 7.0 0.00 0.00 0.00 10 812.1
20260509143726 42 122 5.0 8.0 0.00 0.00 0.00 10 812.1
20260509143616 42 124 6.0 8.0 0.00 0.00 0.00 10 812.1
20260509143506 42 123 7.0 10.0 0.00 0.00 0.00 10 812.1
20260509143358 42 97 8.0 10.0 0.00 0.00 0.00 10 812.1
20260509143246 42 113 7.0 10.0 0.00 0.00 0.00 10 812.1
20260509143136 42 128 5.0 8.0 0.00 0.00 0.00 10 812.1
20260509142916 42 104 8.0 9.0 0.00 0.00 0.00 10 811.9
20260509142806 42 102 5.0 7.0 0.00 0.00 0.00 10 812.1
20260509142656 42 117 4.0 6.0 0.00 0.00 0.00 10 812.1
20260509142546 42 97 4.0 6.0 0.00 0.00 0.00 10 812.1
20260509142436 42 100 7.0 9.0 0.00 0.00 0.00 10 812.1
20260509142216 42 104 4.0 6.0 0.00 0.00 0.00 10 812.1
20260509142106 42 120 6.0 8.0 0.00 0.00 0.00 10 812.1
20260509141956 42 101 5.0 7.0 0.00 0.00 0.00 10 811.9
20260509141846 42 66 3.0 5.0 0.00 0.00 0.00 10 811.9
20260509141736 42 88 3.0 4.0 0.00 0.00 0.00 10 811.9
20260509141516 42 95 4.0 5.0 0.00 0.00 0.00 10 812.1
20260509141406 42 81 5.0 6.0 0.00 0.00 0.00 10 812.1
20260509141146 42 103 3.0 5.0 0.00 0.00 0.00 10 812.1
20260509141036 42 88 3.0 5.0 0.00 0.00 0.00 10 812.1
20260509140926 42 69 5.0 7.0 0.00 0.00 0.00 10 812.1
20260509140706 42 80 6.0 8.0 0.00 0.00 0.00 10 812.1
20260509140336 42 120 5.0 8.0 0.00 0.00 0.00 10 812.1
20260509140226 42 108 5.0 7.0 0.00 0.00 0.00 10 812.1
20260509140116 42 109 5.0 7.0 0.00 0.00 0.00 10 812.1
20260509140006 42 111 6.0 8.0 0.00 0.00 0.00 10 812.1
20260509135856 42 107 6.0 8.0 0.00 0.00 0.00 10 812.1
20260509135746 42 112 6.0 9.0 0.00 0.00 0.00 10 812.1
20260509135636 42 112 7.0 9.0 0.00 0.00 0.00 10 812.1
20260509135526 42 110 5.0 8.0 0.00 0.00 0.00 10 812.1
20260509135416 42 100 6.0 10.0 0.00 0.00 0.00 10 812.1
20260509135306 42 114 6.0 7.0 0.00 0.00 0.00 10 811.9
20260509135156 42 110 8.0 10.0 0.00 0.00 0.00 10 812.1
20260509135046 42 100 7.0 10.0 0.00 0.00 0.00 10 812.1
20260509134936 42 108 8.0 10.0 0.00 0.00 0.00 10 812.1
20260509134826 42 101 5.0 8.0 0.00 0.00 0.00 10 812.1
20260509134606 42 44 3.0 5.0 0.00 0.00 0.00 10 812.1
20260509134346 42 86 5.0 7.0 0.00 0.00 0.00 10 812.1
20260509134236 42 68 6.0 8.0 0.00 0.00 0.00 10 812.1
20260509134126 42 68 4.0 5.0 0.00 0.00 0.00 10 812.1
20260509134016 42 67 4.0 6.0 0.00 0.00 0.00 10 812.1
20260509133906 42 52 3.0 5.0 0.00 0.00 0.00 10 812.1
20260509133756 42 81 4.0 5.0 0.00 0.00 0.00 10 812.1
20260509133646 42 101 2.0 4.0 0.00 0.00 0.00 10 812.1
20260509133536 42 97 4.0 4.0 0.00 0.00 0.00 10 812.1
20260509133426 42 71 3.0 4.0 0.00 0.00 0.00 10 812.1
20260509133316 42 85 3.0 7.0 0.00 0.00 0.00 10 812.1
20260509133206 42 65 4.0 5.0 0.00 0.00 0.00 10 812.1
20260509133056 42 51 4.0 6.0 0.00 0.00 0.00 10 812.1
20260509132946 42 70 5.0 7.0 0.00 0.00 0.00 10 812.1
20260509132726 42 64 4.0 6.0 0.00 0.00 0.00 10 812.1
20260509132616 42 54 4.0 5.0 0.00 0.00 0.00 10 812.1
20260509132356 42 69 5.0 6.0 0.00 0.00 0.00 10 812.1
20260509132246 42 76 5.0 7.0 0.00 0.00 0.00 10 812.1
20260509132026 42 82 5.0 6.0 0.00 0.00 0.00 10 812.1
20260509131916 42 87 4.0 4.0 0.00 0.00 0.00 10 812.1
20260509131436 42 118 5.0 6.0 0.00 0.00 0.00 10 812.1
20260509131326 42 124 5.0 6.0 0.00 0.00 0.00 10 812.1
20260509131106 42 131 6.0 8.0 0.00 0.00 0.00 10 812.1
20260509130846 42 133 6.0 8.0 0.00 0.00 0.00 10 812.1
20260509130736 42 134 7.0 9.0 0.00 0.00 0.00 10 812.1
20260509130516 42 162 5.0 8.0 0.00 0.00 0.00 10 812.1
20260509130406 42 146 8.0 10.0 0.00 0.00 0.00 10 812.1
20260509130255 42 144 6.0 9.0 0.00 0.00 0.00 10 812.1
20260509130146 42 128 4.0 6.0 0.00 0.00 0.00 10 812.1
20260509130036 42 133 4.0 6.0 0.00 0.00 0.00 10 812.1
20260509125926 42 120 4.0 6.0 0.00 0.00 0.00 10 812.1
20260509125816 42 125 5.0 6.0 0.00 0.00 0.00 10 812.1
20260509125706 42 126 4.0 6.0 0.00 0.00 0.00 10 812.1
20260509125556 42 120 4.0 6.0 0.00 0.00 0.00 10 812.1
20260509125446 42 122 3.0 5.0 0.00 0.00 0.00 10 812.2
20260509125336 42 145 3.0 4.0 0.00 0.00 0.00 10 812.2
20260509125226 42 129 4.0 6.0 0.00 0.00 0.00 10 812.1
20260509125116 42 111 4.0 6.0 0.00 0.00 0.00 10 812.1
20260509125006 42 132 2.0 4.0 0.00 0.00 0.00 10 812.1
20260509124746 42 122 4.0 10.0 0.00 0.00 0.00 10 812.2
20260509124636 42 107 5.0 6.0 0.00 0.00 0.00 10 812.2
20260509124526 42 89 4.0 7.0 0.00 0.00 0.00 10 812.2
20260509124416 42 113 4.0 7.0 0.00 0.00 0.00 10 812.2
20260509124306 43 135 5.0 6.0 0.00 0.00 0.00 10 812.2
20260509124156 43 143 5.0 7.0 0.00 0.00 0.00 10 812.2
20260509124046 43 96 2.0 3.0 0.00 0.00 0.00 10 812.2
20260509123936 43 152 3.0 4.0 0.00 0.00 0.00 10 812.2
20260509123826 43 129 3.0 4.0 0.00 0.00 0.00 10 812.2
20260509123716 42 109 4.0 5.0 0.00 0.00 0.00 10 812.2
20260509123606 42 124 4.0 6.0 0.00 0.00 0.00 10 812.2